Regional Weather Roundup
Issued by NWS

Home | Current Version | Previous Version | Text Only | Print | Product List | Glossary On
Versions: 1 2 3 4 5 6 7 8 9 10 11 12 13 14 15 16 17 18 19 20 21 22 23 24 25 26 27 28 29 30 31 32 33 34 35 36 37 38 39 40 41 42 43 44 45 46 47 48 49 50
000
ASHW40 PHFO 290443
RWRHI

WEATHER ROUNDUP FOR HAWAII
NATIONAL WEATHER SERVICE HONOLULU HI
600 PM HST MON JUL 28 2014

THIS IS AN AUTOMATED REPORT THAT HAS NOT BEEN QUALITY CONTROLLED.

NOTE..."FAIR" INDICATES FEW OR NO CLOUDS BELOW 12,000 FEET WITH NO
SIGNIFICANT WEATHER AND/OR OBSTRUCTIONS TO VISIBILITY.

* - THESE SITES REPORT LIMITED FIELDS

HIZ001>004-290500-
KAUAI-NIIHAU-

CITY           SKY/WX    TMP DP  RH WIND       PRES   REMARKS
LIHUE APT      PTSUNNY   81  70  69 NE12      30.04S
PORT ALLEN*      N/A     84 N/A N/A E17G24      N/A
POIPU*           N/A     82 N/A N/A NE8G18      N/A
PRINCEVILLE*   NOT AVBL
KOKOLE POINT*  NOT AVBL
MOLOAA DAIRY*  NOT AVBL
WAIMEA HTS*      N/A     81  66  61 W3G13       N/A
PUU OPAE*        N/A     75  66  73 CALM        N/A
PUU LUA*       NOT AVBL
MAKAHA RIDGE*  NOT AVBL
$$

HIZ005>011-290500-
OAHU-

CITY           SKY/WX    TMP DP  RH WIND       PRES   REMARKS
HONOLULU       MOSUNNY   84  67  56 NE16G23   30.00S
KALAELOA       MOSUNNY   85  67  54 E9G16     30.01R
KANEOHE MCB    MOSUNNY   82  68  61 E8G17     30.02R
WHEELER FIELD  FAIR      80  66  63 SE8       30.03R
BELLOWS*         N/A    N/A N/A N/A NE16        N/A
KAHUKU*          N/A    N/A N/A N/A E12G21      N/A
WHEELER*       NOT AVBL
WAIANAE HARBOR NOT AVBL
DILLINGHAM*      N/A     86  70  58 NE9G18      N/A  HX  90
KAHUKU TRN*      N/A     79  70  73 E9G21       N/A
KAWAILOA*      NOT AVBL
KII*             N/A     81  73  78 CALM        N/A
MAKUA RANGE*     N/A     86  70  58 N2G8        N/A  HX  90
OAHU FOREST NW   N/A     68  68 100 NW17G30     N/A
SCHOFIELD BRK*   N/A     79  64  61 MISG        N/A
SCHOFIELD S*   NOT AVBL
WAIANAE VLY*     N/A     79  64  61 S3G15       N/A
KUAOKALA*        N/A     77  66  69 CALM        N/A
HONOULIUULI*   NOT AVBL
MOKUOLOE IS*     N/A    N/A N/A N/A MISG        N/A
PALEHUA*         N/A     79  66  65 CALM        N/A
WAIAWA PHB*    NOT AVBL
$$

HIZ012>013-290500-
MOLOKAI-

CITY           SKY/WX    TMP DP  RH WIND       PRES   REMARKS
MOLOKAI AIRPT  MOSUNNY   81  72  74 NE12G20   30.01R
KALAUPAPA      NOT AVBL
MAKAPULAPAI*     N/A     81  70  69 E18G26      N/A
MOLOKAI 1*       N/A     72  59  64 NE3G15      N/A
PUU ALII*        N/A     69  61  76 SE2G12      N/A
$$

HIZ016-290500-
KAHOOLAWE-

CITY           SKY/WX    TMP DP  RH WIND       PRES   REMARKS
KAHOOLAWE*       N/A     73 N/A N/A E21G30      N/A
HAKIOAWA*        N/A     75  68  78 MISG      30.12R
HONOKANAIA*      N/A     81  69  65 NE18G35     N/A
KANELOA*         N/A     79  70  73 E18G36    30.09
KEALIALALO*      N/A    N/A N/A N/A SE18G39     N/A
LUA MAKIKA*    NOT AVBL
$$

HIZ014>015-290500-
LANAI-

CITY           SKY/WX    TMP DP  RH WIND       PRES   REMARKS
LANAI CITY     FAIR      78  69  73 N15       30.06S
LANAI 1*         N/A     73  72  94 NE17G31     N/A
$$

HIZ017>028-290500-
MAUI-

CITY           SKY/WX    TMP DP  RH WIND       PRES   REMARKS
KAHULUI        MOSUNNY   84  67  56 NE20G29   29.97R
KAPALUA-W MAUI MOSUNNY   81  66  61 E17G25    30.00S
HANA AIRPORT   PTSUNNY   79  70  73 SE6       30.05S
HANA*            N/A     81 N/A N/A E7          N/A
HALEAKALA SUMM   N/A     48  28  46 E6G20       N/A
MAALAEA BAY*   NOT AVBL
HALEAKALA*     NOT AVBL
KAUPO GAP*       N/A     68  63  83 SW3G12      N/A
KULA 1*          N/A     63  57  80 W2G9        N/A
$$

HIZ023>026-290500-
BIG ISLAND OF HAWAII COAST AND LOWER SLOPES-

CITY           SKY/WX    TMP DP  RH WIND       PRES   REMARKS
KAILUA KONA    CLOUDY    84  71  65 SW7       29.96S
HILO           MOSUNNY   80  71  74 E7        30.02R
HONOKAA*       NOT AVBL
KAWAIHAE MWT*    N/A     84 N/A N/A W6          N/A
KAWAIHAE*        N/A     82 N/A N/A W7          N/A
SOUTH POINT*     N/A     75 N/A N/A NE18G25     N/A
UPOLU AIRPORT*   N/A    N/A N/A N/A E20G28      N/A
KAMUELA*       CLOUDY    72  64  78 NE15      30.11S
HAKALAU*         N/A     66  44  44 S3G9        N/A
KALOKO-HONOKO*   N/A     82  72  69 SW5       29.95S
PALI 2*          N/A     73  59  60 N17G23      N/A
KEALAKOMO*       N/A     84  73  70 E16G24      N/A  HX  91
KAUPULEHU*       N/A     79  63  57 NW7G15      N/A
KAPAPALA*        N/A     74  66  75 E3G12       N/A
LOWER KAHUKU*  NOT AVBL
PUHE CS*       NOT AVBL
PUHO CS*         N/A     83  71  66 W3G9        N/A
PTA KEAMUKU*     N/A    N/A N/A N/A NE14G20     N/A
WAIKOLOA*        N/A     79  63  57 NE12G26     N/A
$$

HIZ027>028-290500-
BIG ISLAND OF HAWAII INTERIOR AND SUMMMITS-

CITY           SKY/WX    TMP DP  RH WIND       PRES   REMARKS
BRADSHAW FIELD MOSUNNY   68  29  23 SE13G21   30.34S
MK VISITOR CEN NOT AVBL
MAUNA KEA*       N/A     39  -4  16 E10         N/A
MAUNA LOA*     NOT AVBL
MAUNA LOA 1*   NOT AVBL
PTA KIPUKA*      N/A     66  59  77 N5G12       N/A
PTA RANGE 17*    N/A     66  59  77 W7          N/A
PTA WEST*        N/A    N/A N/A N/A NW8         N/A
NENE CABIN*    NOT AVBL
AHUMOA*          N/A     60  59  95 S5          N/A
PTA PORTABLE*  NOT AVBL
PUU MALI*      NOT AVBL
$$

HIC003-290500-
NORTHWEST ISLANDS-

CITY           SKY/WX    TMP DP  RH WIND       PRES   REMARKS
MIDWAY ISLAND  SUNNY     84  73  70 S10       30.00S HX  91
MIDWAY NOS*    NOT AVBL
FRENCH FRIGATE NOT AVBL
$$

PHZ110>124-180-290500-
BUOY REPORTS

STATION/POSITION TIME  TEMP    WIND        PRES    WAVE   SWELL
                       AIR SEA DIR/SP/G            HT/PER HT/DIR
                 (UTC) (F)     (DEG/KT/KT) (MB)    (FT/S) (FT/D)
BUOY 51001       NOT AVBL
BUOY 51101       NOT AVBL
BUOY 51100       0400   76 78   60/  4/  8 1017.8F
BUOY 51003       0400   81 82   60/ 14/ 16 1014.6F   8/ 9   7
BUOY 51004       0305   79 80   60/ 17/ 21 1013.9    8/ 8   3/150
BARBERS PT BUOY  NOT AVBL
WAIMEA BAY BUOY  0400      80                N/A     3/13
KAILUA BAY BUOY  0400      80                N/A     5/ 6   2/ 80
LANAI BUOY       0400      81                N/A     3/17   2/200
BARBERS PT 2     0400      81                N/A     4/ 8   2/190
PAUWELA MAUI     0400      79                N/A     5/ 9   2/100
HILO             NOT AVBL
KANEOHE BAY BUOY 0400      79                N/A     4/ 6
HANALEI KAUAI    NOT AVBL
KAHULUI HARBOR   0400      81   60/ 19/ 26 1014.9R
HONOLULU HARBOR  0400           50/  6/ 10 1016.2R
KILO NALU        NOT AVBL
HILO HARBOR      0400           50/  5/  7 1016.2R
MOKUOLOE         0400      83              1016.9R
NAWILIWILI       0400      82                N/A
WHOTS BUOY       NOT AVBL
BUOY 51028       NOT AVBL
$$

......................KEY........................................
  SKY/WX - SKY CONDITIONS/PRESENT WEATHER
  TMP    - TEMPERATURE IN FAHRENHEIT
  DWPT   - DEWPOINT IN FAHRENHEIT
  RH     - RELATIVE HUMIDITY IN PERCENT
  WIND   - DIRECTION AND SPEED /MPH FOR ISLANDS...KTS FOR BUOYS/
  PRES   - MEAN SEA LEVEL PRESSURE IN INCHES OF HG
  VSB    - VISIBILITY IN MILES
  HX     - HEAT INDEX
  WCI    - WIND CHILL INDEX
  VRB    - VARIABLE WIND DIRECTION
  N/A    - NOT AVAILABLE



USA.gov is the U.S. government's official web portal to all federal, state and local government web resources and services.